This demonstration page uses our WeatherBlox Daily Observations layout. Learn more.

38.89511, -77.03637

Hourly Observations for June 20, 2015

Temp ( °F °C ) Dew Point ( °F °C ) Humidity (%) Winds ( mph kmh ) Pressure ( in mb ) Visibility ( mi km ) Precip ( " mm )
12:52 am 00:52 Cloudy 77 25 70 21 79 79 WNW 7 11 30 1016 10 16.09344 0 0
1:52 am 01:52 Clear 79 26 66 19 65 65 WNW 3 6 30 1016 10 16.09344 0 0
2:52 am 02:52 Cloudy 79 26 68 20 70 70 N 3 6 30 1016 10 16.09344 0 0
3:52 am 03:52 Cloudy 77 25 66 19 69 69 Calm 30 1016 10 16.09344 0 0
4:52 am 04:52 Cloudy 77 25 68 20 74 74 N 5 7 30 1016 10 16.09344 0 0
5:52 am 05:52 Cloudy 77 25 66 19 69 69 NW 3 6 30 1016 10 16.09344 0 0
6:26 am 06:26 Cloudy 77 25 68 20 74 74 Calm 30 1016 10 16.09344 0 0
6:52 am 06:52 Cloudy 77 25 68 20 74 74 Calm 30 1016 10 16.09344 0 0
7:52 am 07:52 Cloudy 79 26 70 21 74 74 Calm 30 1016 10 16.09344 0 0
8:52 am 08:52 Cloudy 81 27 70 21 70 70 Calm 30 1016 10 16.09344 0 0
9:52 am 09:52 Cloudy 82 28 70 21 66 66 Calm 30 1016 10 16.09344 0 0
10:08 am 10:08 Cloudy with Light Rain 82 28 70 21 66 66 Calm 30 1016 10 16.09344 0 0
10:25 am 10:25 Cloudy 82 28 70 21 66 66 Calm 30 1016 10 16.09344 0.001 0.001
10:52 am 10:52 Cloudy 82 28 70 21 66 66 S 3 6 30 1016 10 16.09344 0.001 0.001
11:52 am 11:52 Mostly Cloudy 84 29 72 22 66 66 S 6 9 30 1016 10 16.09344 0 0
12:52 pm 12:52 Mostly Cloudy 86 30 73 23 66 66 Calm 29.97 1015 10 16.09344 0 0
1:52 pm 13:52 Mostly Cloudy 90 32 73 23 59 59 S 6 9 29.94 1014 10 16.09344 0 0
2:52 pm 14:52 Mostly Cloudy 91 33 75 24 59 59 S 8 13 29.94 1014 10 16.09344 0 0
3:52 pm 15:52 Mostly Sunny 91 33 75 24 59 59 S 12 19 29.91 1013 10 16.09344 0 0
4:52 pm 16:52 Cloudy 90 32 75 24 63 63 SE 15 24 29.88 1012 10 16.09344 0 0
5:36 pm 17:36 Cloudy 88 31 75 24 66 66 SSE 15 24 29.83 1010 10 16.09344 0 0
5:52 pm 17:52 Cloudy 90 32 75 24 63 63 SE 16 26 29.83 1010 10 16.09344 0 0
6:27 pm 18:27 Cloudy with Thunderstorms 88 31 75 24 66 66 SE 13 20 29.83 1010 10 16.09344 0 0
6:52 pm 18:52 Cloudy with Light Thunderstorms 84 29 75 24 74 74 SE 13 20 29.83 1010 9 14.484096 0.001 0.001
7:09 pm 19:09 Cloudy with Light Thunderstorms 84 29 77 25 79 79 E 7 11 29.83 1010 7 11.265408 0.04 1.016
7:33 pm 19:33 Cloudy with Light Thunderstorms 84 29 75 24 74 74 N 6 9 29.8 1009 10 16.09344 0.04 1.016
7:52 pm 19:52 Cloudy with Thunderstorms 84 29 75 24 74 74 SE 9 15 29.8 1009 10 16.09344 0.04 1.016
8:03 pm 20:03 Cloudy with Thunderstorms 84 29 75 24 74 74 SE 13 20 29.8 1009 10 16.09344 0 0
8:18 pm 20:18 Windy with Storms Likely 82 28 73 23 74 74 W 29 46 29.85 1011 6 9.656064 0 0
8:21 pm 20:21 Cloudy with Thunderstorms 79 26 72 22 79 79 WSW 24 39 29.85 1011 2 3.218688 0.001 0.001
8:26 pm 20:26 Cloudy with Heavy Thunderstorms 75 24 72 22 89 89 WSW 14 22 29.88 1012 0.5 0.804672 0 0
8:36 pm 20:36 Cloudy with Heavy Thunderstorms 75 24 72 22 89 89 W 22 35 29.83 1010 1 1.609344 0 0
8:43 pm 20:43 Cloudy with Heavy Thunderstorms 75 24 72 22 89 89 WSW 15 24 29.83 1010 2 3.218688 0.73 18.542
8:49 pm 20:49 Cloudy with Heavy Thunderstorms 75 24 72 22 89 89 N 7 11 29.83 1010 2 3.218688 0.76 19.304
8:52 pm 20:52 Cloudy with Heavy Thunderstorms 75 24 72 22 89 89 SSW 8 13 29.83 1010 2.5 4.02336 0.83 21.082
8:56 pm 20:56 Cloudy with Heavy Thunderstorms 75 24 72 22 89 89 SW 13 20 29.83 1010 1.25 2.01168 0.04 1.016
9:08 pm 21:08 Cloudy with Heavy Thunderstorms 75 24 72 22 89 89 S 9 15 29.83 1010 1.75 2.816352 0 0
9:17 pm 21:17 Cloudy with Heavy Thunderstorms 77 25 73 23 89 89 SSE 10 17 29.83 1010 0.5 0.804672 0.69 17.526
9:24 pm 21:24 Cloudy with Heavy Thunderstorms 75 24 73 23 94 94 ENE 12 19 29.8 1009 1 1.609344 0 0
9:29 pm 21:29 Cloudy with Light Thunderstorms 75 24 73 23 94 94 ENE 13 20 29.8 1009 4 6.437376 1.02 25.908
9:42 pm 21:42 Cloudy with Heavy Thunderstorms 75 24 73 23 94 94 SSE 9 15 29.83 1010 2 3.218688 1.13 28.702
9:52 pm 21:52 Cloudy with Heavy Thunderstorms 75 24 72 22 89 89 S 14 22 29.83 1010 3 4.828032 1.21 30.734
9:59 pm 21:59 Cloudy with Heavy Thunderstorms 77 25 73 23 89 89 S 15 24 29.83 1010 4 6.437376 0.03 0.762
10:36 pm 22:36 Cloudy with Heavy Thunderstorms 77 25 72 22 83 83 S 10 17 29.8 1009 4 6.437376 0.2 5.08
10:52 pm 22:52 Cloudy with Light Thunderstorms 75 24 72 22 89 89 SSE 9 15 29.8 1009 7 11.265408 0.25 6.35
11:09 pm 23:09 Cloudy with Light Rain 75 24 72 22 89 89 SSE 9 15 29.8 1009 10 16.09344 0.03 0.762

Powered by AerisWeather